{"data":{"norad_id":67458,"intl_designator":"2026-008P","name":"STARLINK-36528","alt_names":[],"object_type":"PAYLOAD","status":"ACTIVE","operator":null,"country":"US","launch_date":"2026-01-14","launch_site_code":"AFETR","launch_vehicle":null,"mission":null,"orbit_class":"UNKNOWN","rcs_meters":null,"size_class":null,"mass_kg":null,"dimensions":null,"purposes":["comms"],"wikipedia_slug":null,"has_3d_model":false,"image_url":null,"decayed_at":null,"tle_current":{"epoch":"2026-05-24T23:25:10.625088Z","epoch_age_seconds":73059,"freshness":"FRESH","line1":"1 67458U 26008P   26144.97581742  .00017073  00000+0  62789-3 0  9998","line2":"2 67458  43.0005 134.0050 0001333 276.3941  83.6759 15.27613023 21246","mean_motion":15.27613023,"eccentricity":0.0001333,"inclination_deg":43.0005,"raan_deg":134.005,"arg_perigee_deg":276.3941,"mean_anomaly_deg":83.6759,"bstar":0.00062789,"rev_number":2124,"period_min":94.264710912981,"perigee_km":482.03563215325,"apogee_km":483.86479800479,"semimajor_km":6861.087215079,"source":"CELESTRAK","updated_at":"2026-05-25T13:38:21.562116Z"}}}